Regional Weather Roundup
Issued by NWS Cleveland, OH

Home | Current Version | Previous Version | Graphics & Text | Print | Product List | Glossary On
Versions: 1 2 3 4 5 6 7 8 9 10 11 12 13 14 15 16 17 18 19 20 21 22 23 24 25 26 27 28 29 30 31 32 33 34 35 36 37 38 39 40 41 42 43 44 45 46 47 48 49 50
000
ASUS41 KCLE 031700
RWRCLE
OHIO REGIONAL WEATHER ROUNDUP
NATIONAL WEATHER SERVICE WILMINGTON, OH
100 PM EDT SUN MAY 03 2015

NOTE: "FAIR" INDICATES FEW OR NO CLOUDS BELOW 12,000 FEET WITH NO
SIGNIFICANT WEATHER AND/OR OBSTRUCTIONS TO VISIBILITY.

OHZ001>008-015>018-024>027-034-035-043-044-031800-
   NORTHWEST OHIO

CITY           SKY/WX    TMP DP  RH WIND       PRES   REMARKS
DEFIANCE       SUNNY     76  43  30 SW14      30.07S
FINDLAY        SUNNY     76  43  30 SW16G25   30.08F
TOLEDO EXPRESS SUNNY     75  40  28 SW15G22   30.06F
TOLEDO EXEC    SUNNY     77  42  28 SW20      30.07F
LIMA           MOSUNNY   73  46  38 SW9G23    30.10S
$$

OHZ009>014-019>023-028>033-038-089-031800-
   NORTHEAST OHIO

CITY           SKY/WX    TMP DP  RH WIND       PRES   REMARKS
CLE-HOPKINS    MOSUNNY   75  42  30 SW12G18   30.11F
CLE-LAKEFRONT  SUNNY     70  44  39 NW5       30.09F
CUY CO. ARPT   MOSUNNY   75  48  38 NW12      30.11F
LORAIN-ELYRIA  MOSUNNY   76  43  30 SW7G17    30.09F
ASHTABULA      MOSUNNY   73  39  29 W9        30.10F
AKRON-CANTON   MOSUNNY   76  41  28 SW12      30.12F
WOOSTER        NOT AVBL
MANSFIELD      MOSUNNY   74  41  30 SW7       30.12S
YOUNGSTOWN     MOSUNNY   74  40  29 VRB7      30.11F
$$

OHZ042-051>053-060>062-070>072-077>081-031800-
  SOUTHWEST OHIO

CITY           SKY/WX    TMP DP  RH WIND       PRES   REMARKS
CINC-COVINGTON MOSUNNY   74  48  39 S9G17     30.13F
CINC-LUNKEN    MOSUNNY   74  50  42 SW12G18   30.13F
HAMILTON       SUNNY     76  46  34 VRB6      30.13S
DAYTON         NOT AVBL
WRIGHT-PAT AFB NOT AVBL
DAYTON GENERAL MOSUNNY   73  45  36 SW12      30.12F
WILMINGTON     MOSUNNY   72  46  39 SW13      30.14S
$$

OHZ036-037-039>041-045>050-054>059-063>069-073>076-082>088-031800-
  CENTRAL AND SOUTHEAST OHIO

CITY           SKY/WX    TMP DP  RH WIND       PRES   REMARKS
COLUMBUS       PTSUNNY   74  45  35 SW10      30.13S
OSU AIRPORT    MOSUNNY   73  46  38 S8G18     30.12S
BOLTON FIELD   SUNNY     73  48  40 S7        30.14S
RICKENBACK AFB NOT AVBL
NEWARK         MOSUNNY   74  46  36 SW13G18   30.12F
MARION         MOSUNNY   75  43  31 SW13      30.11F
LANCASTER      MOSUNNY   74  45  35 SW8       30.14F
ZANESVILLE     MOSUNNY   71  44  37 W8        30.13F
NEW PHILLY     MOSUNNY   76  40  27 SW9       30.13S
$$



USA.gov is the U.S. government's official web portal to all federal, state and local government web resources and services.